Weather in Staryy Kurdym

Russia / Republic of Bashkortostan     56°14′59″N   55°29′22″E
temp.,
°C
wind,
m/s
gust,
m/s
humid.,
%
clouds,
%
prec.,
mm/h
press.,
hPa
HPBL,
m
6 march, sat
sat623:00−13w449129 0.0 100768
02:00−15wsw45944 0.0 100778
05:00−15sw479738 0.0 1009116
08:00−14sw499799 0.1 1009216
11:00−11wsw579599 0.4 1010338
14:00−9wsw3591100 0.6 1010442
17:00−8wsw4591100 0.8 1010555
20:00−14w349263 0.1 101238
7 march, sun
sun723:00−17w349332 0.1 101327
02:00−19w239927 0.0 101220
05:00−20sw2210056 0.0 101320
08:00−22sw1210089 0.0 101220
11:00−17w229476 0.0 1012175
14:00−14w2289100 0.0 1011318
17:00−13wsw2290100 0.0 1010289
20:00−18ssw229732 0.0 101020
8 march, mon
mon823:00−19s2310041 0.0 101120
02:00−20s3410074 0.0 100949
05:00−18sse5109787 0.1 1008211
08:00−15sse71395100 0.1 1004358
11:00−12s81493100 1.1 1001711
14:00−6s81393100 0.9 1000927
17:00−6sw61184100 1.3 1000937
20:00−8ssw5128898 0.0 1001313
9 march, tue
tue923:00−8sse5109499 0.1 999317
02:00−7ne2296100 2.6 99666
05:00−8wsw61292100 3.3 997558
08:00−10sw7129498 0.2 1000509
11:00−10sw589399 0.6 1001488
14:00−9sw5890100 0.3 1003577
17:00−7wsw6889100 0.4 1005748
20:00−11sw499498 0.1 1006170
10 march, wed
wed1023:00−12wsw489695 0.1 1008175
02:00−14wsw369790 0.1 1008127
05:00−16sw359794 0.3 1009130
08:00−17sw3597100 0.3 1009119
11:00−14wsw349595 0.4 1009281
14:00−12wnw3487100 0.1 1010610
17:00−13nw4589100 0.3 1010501
20:00−17nnw369594 0.0 1011134